owner,sensor,date,latitude,longitude,vertical_datum,wind_speed,wind_to_direction,wind_speed_of_gust,qcFlag 
DISL,ioos:station:DISL:MHPA:1,2009-10-01T00:00:00Z,30.6671,-87.9365,8.5,1.61,40.7,-9999.0,'1111122,1111122,1111122' 
DISL,ioos:station:DISL:MHPA:1,2009-10-01T00:30:00Z,30.6671,-87.9365,8.5,0.85,37.68,-9999.0,'1111122,1111122,1111122' 
DISL,ioos:station:DISL:MHPA:1,2009-10-01T01:00:00Z,30.6671,-87.9365,8.5,0.99,54.8,-9999.0,'1111122,1111122,1111122' 
DISL,ioos:station:DISL:MHPA:1,2009-10-01T01:30:00Z,30.6671,-87.9365,8.5,1.38,36.12,-9999.0,'1111122,1111122,1111122' 
DISL,ioos:station:DISL:MHPA:1,2009-10-01T02:00:00Z,30.6671,-87.9365,8.5,1.68,35.33,-9999.0,'1111122,1111122,1111122' 
DISL,ioos:station:DISL:MHPA:1,2009-10-01T02:30:00Z,30.6671,-87.9365,8.5,1.3,32.9,-9999.0,'1111122,1111122,1111122' 
DISL,ioos:station:DISL:MHPA:1,2009-10-01T03:00:00Z,30.6671,-87.9365,8.5,1.49,30.42,-9999.0,'1111122,1111122,1111122' 
DISL,ioos:station:DISL:MHPA:1,2009-10-01T03:30:00Z,30.6671,-87.9365,8.5,1.57,32.58,-9999.0,'1111122,1111122,1111122' 
DISL,ioos:station:DISL:MHPA:1,2009-10-01T04:00:00Z,30.6671,-87.9365,8.5,1.92,39.45,-9999.0,'1111122,1111122,1111122' 
DISL,ioos:station:DISL:MHPA:1,2009-10-01T04:30:00Z,30.6671,-87.9365,8.5,1.59,33.21,-9999.0,'1111122,1111122,1111122' 
DISL,ioos:station:DISL:MHPA:1,2009-10-01T05:00:00Z,30.6671,-87.9365,8.5,1.87,25.75,-9999.0,'1111122,1111122,1111122' 
DISL,ioos:station:DISL:MHPA:1,2009-10-01T05:30:00Z,30.6671,-87.9365,8.5,1.47,63.54,-9999.0,'1111122,1111122,1111122' 
DISL,ioos:station:DISL:MHPA:1,2009-10-01T06:00:00Z,30.6671,-87.9365,8.5,1.07,49.54,-9999.0,'1111122,1111122,1111122' 
DISL,ioos:station:DISL:MHPA:1,2009-10-01T06:30:00Z,30.6671,-87.9365,8.5,1.31,34.91,-9999.0,'1111122,1111122,1111122' 
DISL,ioos:station:DISL:MHPA:1,2009-10-01T07:00:00Z,30.6671,-87.9365,8.5,1.7,2.872,-9999.0,'1111122,1111122,1111122' 
DISL,ioos:station:DISL:MHPA:1,2009-10-01T07:30:00Z,30.6671,-87.9365,8.5,0.98,54.55,-9999.0,'1111122,1111122,1111122' 
DISL,ioos:station:DISL:MHPA:1,2009-10-01T08:00:00Z,30.6671,-87.9365,8.5,1.2,20.71,-9999.0,'1111122,1111122,1111122' 
DISL,ioos:station:DISL:MHPA:1,2009-10-01T08:30:00Z,30.6671,-87.9365,8.5,1.51,47.66,-9999.0,'1111122,1111122,1111122' 
DISL,ioos:station:DISL:MHPA:1,2009-10-01T09:00:00Z,30.6671,-87.9365,8.5,1.31,47.75,-9999.0,'1111122,1111122,1111122' 
DISL,ioos:station:DISL:MHPA:1,2009-10-01T09:30:00Z,30.6671,-87.9365,8.5,1.19,92.1,-9999.0,'1111122,1111122,1111122' 
DISL,ioos:station:DISL:MHPA:1,2009-10-01T10:00:00Z,30.6671,-87.9365,8.5,1.29,76.4,-9999.0,'1111122,1111122,1111122' 
DISL,ioos:station:DISL:MHPA:1,2009-10-01T10:30:00Z,30.6671,-87.9365,8.5,0.78,27.98,-9999.0,'1111122,1111122,1111122' 
DISL,ioos:station:DISL:MHPA:1,2009-10-01T11:00:00Z,30.6671,-87.9365,8.5,1.0,340.1,-9999.0,'1111122,1111122,1111122' 
DISL,ioos:station:DISL:MHPA:1,2009-10-01T11:30:00Z,30.6671,-87.9365,8.5,1.07,356.0,-9999.0,'1111122,1111122,1111122' 
DISL,ioos:station:DISL:MHPA:1,2009-10-01T12:00:00Z,30.6671,-87.9365,8.5,1.0,53.92,-9999.0,'1111122,1111122,1111122' 
DISL,ioos:station:DISL:MHPA:1,2009-10-01T12:30:00Z,30.6671,-87.9365,8.5,1.97,79.2,-9999.0,'1111122,1111122,1111122' 
DISL,ioos:station:DISL:MHPA:1,2009-10-01T13:00:00Z,30.6671,-87.9365,8.5,1.37,85.1,-9999.0,'1111122,1111122,1111122' 
DISL,ioos:station:DISL:MHPA:1,2009-10-01T13:30:00Z,30.6671,-87.9365,8.5,2.78,101.3,-9999.0,'1111122,1111122,1111122' 
DISL,ioos:station:DISL:MHPA:1,2009-10-01T14:00:00Z,30.6671,-87.9365,8.5,2.82,103.4,-9999.0,'1111122,1111122,1111122' 
DISL,ioos:station:DISL:MHPA:1,2009-10-01T14:30:00Z,30.6671,-87.9365,8.5,1.96,108.3,-9999.0,'1111122,1111122,1111122' 
DISL,ioos:station:DISL:MHPA:1,2009-10-01T15:00:00Z,30.6671,-87.9365,8.5,2.13,121.2,-9999.0,'1111122,1111122,1111122' 
DISL,ioos:station:DISL:MHPA:1,2009-10-01T15:30:00Z,30.6671,-87.9365,8.5,0.65,220.3,-9999.0,'1111122,1111122,1111122' 
DISL,ioos:station:DISL:MHPA:1,2009-10-01T16:00:00Z,30.6671,-87.9365,8.5,0.89,262.0,-9999.0,'1111122,1111122,1111122' 
DISL,ioos:station:DISL:MHPA:1,2009-10-01T16:30:00Z,30.6671,-87.9365,8.5,0.96,233.9,-9999.0,'1111122,1111122,1111122' 
DISL,ioos:station:DISL:MHPA:1,2009-10-01T17:00:00Z,30.6671,-87.9365,8.5,1.64,234.0,-9999.0,'1111122,1111122,1111122' 
DISL,ioos:station:DISL:MHPA:1,2009-10-01T17:30:00Z,30.6671,-87.9365,8.5,1.18,221.9,-9999.0,'1111122,1111122,1111122' 
DISL,ioos:station:DISL:MHPA:1,2009-10-01T18:00:00Z,30.6671,-87.9365,8.5,1.09,194.2,-9999.0,'1111122,1111122,1111122' 
DISL,ioos:station:DISL:MHPA:1,2009-10-01T18:30:00Z,30.6671,-87.9365,8.5,2.03,187.0,-9999.0,'1111122,1111122,1111122' 
DISL,ioos:station:DISL:MHPA:1,2009-10-01T19:00:00Z,30.6671,-87.9365,8.5,2.89,185.1,-9999.0,'1111122,1111122,1111122' 
DISL,ioos:station:DISL:MHPA:1,2009-10-01T19:30:00Z,30.6671,-87.9365,8.5,3.05,172.3,-9999.0,'1111122,1111122,1111122' 
DISL,ioos:station:DISL:MHPA:1,2009-10-01T20:00:00Z,30.6671,-87.9365,8.5,2.42,196.8,-9999.0,'1111122,1111122,1111122' 
DISL,ioos:station:DISL:MHPA:1,2009-10-01T20:30:00Z,30.6671,-87.9365,8.5,2.11,221.7,-9999.0,'1111122,1111122,1111122' 
DISL,ioos:station:DISL:MHPA:1,2009-10-01T21:00:00Z,30.6671,-87.9365,8.5,2.17,235.6,-9999.0,'1111122,1111122,1111122' 
DISL,ioos:station:DISL:MHPA:1,2009-10-01T21:30:00Z,30.6671,-87.9365,8.5,2.4,238.6,-9999.0,'1111122,1111122,1111122' 
DISL,ioos:station:DISL:MHPA:1,2009-10-01T22:00:00Z,30.6671,-87.9365,8.5,1.77,230.5,-9999.0,'1111122,1111122,1111122' 
DISL,ioos:station:DISL:MHPA:1,2009-10-01T22:30:00Z,30.6671,-87.9365,8.5,1.77,216.3,-9999.0,'1111122,1111122,1111122' 
DISL,ioos:station:DISL:MHPA:1,2009-10-01T23:00:00Z,30.6671,-87.9365,8.5,2.23,203.9,-9999.0,'1111122,1111122,1111122' 
DISL,ioos:station:DISL:MHPA:1,2009-10-01T23:30:00Z,30.6671,-87.9365,8.5,3.03,201.3,-9999.0,'1111122,1111122,1111122' 
DISL,ioos:station:DISL:MHPA:1,2009-10-02T00:00:00Z,30.6671,-87.9365,8.5,3.58,200.7,-9999.0,'1111122,1111122,1111122' 
DISL,ioos:station:DISL:MHPA:1,2009-10-02T00:30:00Z,30.6671,-87.9365,8.5,3.48,201.4,-9999.0,'1111122,1111122,1111122' 
DISL,ioos:station:DISL:MHPA:1,2009-10-02T01:00:00Z,30.6671,-87.9365,8.5,3.56,187.0,-9999.0,'1111122,1111122,1111122' 
DISL,ioos:station:DISL:MHPA:1,2009-10-02T01:30:00Z,30.6671,-87.9365,8.5,2.36,118.5,-9999.0,'1111122,1111122,1111122' 
DISL,ioos:station:DISL:MHPA:1,2009-10-02T02:00:00Z,30.6671,-87.9365,8.5,2.24,136.5,-9999.0,'1111122,1111122,1111122' 
DISL,ioos:station:DISL:MHPA:1,2009-10-02T02:30:00Z,30.6671,-87.9365,8.5,3.07,125.3,-9999.0,'1111122,1111122,1111122' 
DISL,ioos:station:DISL:MHPA:1,2009-10-02T03:00:00Z,30.6671,-87.9365,8.5,3.31,145.4,-9999.0,'1111122,1111122,1111122' 
DISL,ioos:station:DISL:MHPA:1,2009-10-02T03:30:00Z,30.6671,-87.9365,8.5,3.84,141.1,-9999.0,'1111122,1111122,1111122' 
DISL,ioos:station:DISL:MHPA:1,2009-10-02T04:00:00Z,30.6671,-87.9365,8.5,3.02,145.5,-9999.0,'1111122,1111122,1111122' 
DISL,ioos:station:DISL:MHPA:1,2009-10-02T04:30:00Z,30.6671,-87.9365,8.5,2.68,132.7,-9999.0,'1111122,1111122,1111122' 
DISL,ioos:station:DISL:MHPA:1,2009-10-02T05:00:00Z,30.6671,-87.9365,8.5,3.17,138.5,-9999.0,'1111122,1111122,1111122' 
DISL,ioos:station:DISL:MHPA:1,2009-10-02T05:30:00Z,30.6671,-87.9365,8.5,2.2,140.4,-9999.0,'1111122,1111122,1111122' 
DISL,ioos:station:DISL:MHPA:1,2009-10-02T06:00:00Z,30.6671,-87.9365,8.5,2.19,132.0,-9999.0,'1111122,1111122,1111122' 
DISL,ioos:station:DISL:MHPA:1,2009-10-02T06:30:00Z,30.6671,-87.9365,8.5,2.62,143.9,-9999.0,'1111122,1111122,1111122' 
DISL,ioos:station:DISL:MHPA:1,2009-10-02T07:00:00Z,30.6671,-87.9365,8.5,3.26,147.3,-9999.0,'1111122,1111122,1111122' 
DISL,ioos:station:DISL:MHPA:1,2009-10-02T07:30:00Z,30.6671,-87.9365,8.5,2.48,133.2,-9999.0,'1111122,1111122,1111122' 
DISL,ioos:station:DISL:MHPA:1,2009-10-02T08:00:00Z,30.6671,-87.9365,8.5,2.95,149.9,-9999.0,'1111122,1111122,1111122' 
DISL,ioos:station:DISL:MHPA:1,2009-10-02T08:30:00Z,30.6671,-87.9365,8.5,5.68,180.8,-9999.0,'1111122,1111122,1111122' 
DISL,ioos:station:DISL:MHPA:1,2009-10-02T09:00:00Z,30.6671,-87.9365,8.5,3.14,157.4,-9999.0,'1111122,1111122,1111122' 
DISL,ioos:station:DISL:MHPA:1,2009-10-02T09:30:00Z,30.6671,-87.9365,8.5,5.46,189.0,-9999.0,'1111122,1111122,1111122' 
DISL,ioos:station:DISL:MHPA:1,2009-10-02T10:00:00Z,30.6671,-87.9365,8.5,5.21,189.0,-9999.0,'1111122,1111122,1111122' 
DISL,ioos:station:DISL:MHPA:1,2009-10-02T10:30:00Z,30.6671,-87.9365,8.5,4.38,205.0,-9999.0,'1111122,1111122,1111122' 
DISL,ioos:station:DISL:MHPA:1,2009-10-02T11:00:00Z,30.6671,-87.9365,8.5,3.38,209.4,-9999.0,'1111122,1111122,1111122' 
DISL,ioos:station:DISL:MHPA:1,2009-10-02T11:30:00Z,30.6671,-87.9365,8.5,3.18,213.3,-9999.0,'1111122,1111122,1111122' 
DISL,ioos:station:DISL:MHPA:1,2009-10-02T12:00:00Z,30.6671,-87.9365,8.5,2.68,231.6,-9999.0,'1111122,1111122,1111122' 
DISL,ioos:station:DISL:MHPA:1,2009-10-02T12:30:00Z,30.6671,-87.9365,8.5,1.92,228.4,-9999.0,'1111122,1111122,1111122' 
DISL,ioos:station:DISL:MHPA:1,2009-10-02T13:00:00Z,30.6671,-87.9365,8.5,0.99,11.66,-9999.0,'1111122,1111122,1111122' 
DISL,ioos:station:DISL:MHPA:1,2009-10-02T13:30:00Z,30.6671,-87.9365,8.5,1.53,18.01,-9999.0,'1111122,1111122,1111122' 
DISL,ioos:station:DISL:MHPA:1,2009-10-02T14:00:00Z,30.6671,-87.9365,8.5,1.96,4.054,-9999.0,'1111122,1111122,1111122' 
DISL,ioos:station:DISL:MHPA:1,2009-10-02T14:30:00Z,30.6671,-87.9365,8.5,2.23,95.2,-9999.0,'1111122,1111122,1111122' 
DISL,ioos:station:DISL:MHPA:1,2009-10-02T15:00:00Z,30.6671,-87.9365,8.5,0.88,36.38,-9999.0,'1111122,1111122,1111122' 
DISL,ioos:station:DISL:MHPA:1,2009-10-02T15:30:00Z,30.6671,-87.9365,8.5,0.02,243.8,-9999.0,'1111122,1111122,1111122' 
DISL,ioos:station:DISL:MHPA:1,2009-10-02T16:00:00Z,30.6671,-87.9365,8.5,1.24,300.2,-9999.0,'1111122,1111122,1111122' 
DISL,ioos:station:DISL:MHPA:1,2009-10-02T16:30:00Z,30.6671,-87.9365,8.5,1.25,333.9,-9999.0,'1111122,1111122,1111122' 
DISL,ioos:station:DISL:MHPA:1,2009-10-02T17:00:00Z,30.6671,-87.9365,8.5,0.04,166.6,-9999.0,'1111122,1111122,1111122' 
DISL,ioos:station:DISL:MHPA:1,2009-10-02T17:30:00Z,30.6671,-87.9365,8.5,0.33,227.9,-9999.0,'1111122,1111122,1111122' 
DISL,ioos:station:DISL:MHPA:1,2009-10-02T18:00:00Z,30.6671,-87.9365,8.5,0.42,243.6,-9999.0,'1111122,1111122,1111122' 
DISL,ioos:station:DISL:MHPA:1,2009-10-02T18:30:00Z,30.6671,-87.9365,8.5,0.76,249.1,-9999.0,'1111122,1111122,1111122' 
DISL,ioos:station:DISL:MHPA:1,2009-10-02T19:00:00Z,30.6671,-87.9365,8.5,2.47,283.3,-9999.0,'1111122,1111122,1111122' 
DISL,ioos:station:DISL:MHPA:1,2009-10-02T19:30:00Z,30.6671,-87.9365,8.5,1.7,251.3,-9999.0,'1111122,1111122,1111122' 
DISL,ioos:station:DISL:MHPA:1,2009-10-02T20:00:00Z,30.6671,-87.9365,8.5,1.2,224.2,-9999.0,'1111122,1111122,1111122' 
DISL,ioos:station:DISL:MHPA:1,2009-10-02T20:30:00Z,30.6671,-87.9365,8.5,1.81,196.4,-9999.0,'1111122,1111122,1111122' 
DISL,ioos:station:DISL:MHPA:1,2009-10-02T21:00:00Z,30.6671,-87.9365,8.5,1.81,194.9,-9999.0,'1111122,1111122,1111122' 
DISL,ioos:station:DISL:MHPA:1,2009-10-02T21:30:00Z,30.6671,-87.9365,8.5,1.53,205.6,-9999.0,'1111122,1111122,1111122' 
DISL,ioos:station:DISL:MHPA:1,2009-10-02T22:00:00Z,30.6671,-87.9365,8.5,1.7,199.4,-9999.0,'1111122,1111122,1111122' 
DISL,ioos:station:DISL:MHPA:1,2009-10-02T22:30:00Z,30.6671,-87.9365,8.5,1.47,183.4,-9999.0,'1111122,1111122,1111122' 
DISL,ioos:station:DISL:MHPA:1,2009-10-02T23:00:00Z,30.6671,-87.9365,8.5,1.48,188.7,-9999.0,'1111122,1111122,1111122' 
DISL,ioos:station:DISL:MHPA:1,2009-10-02T23:30:00Z,30.6671,-87.9365,8.5,1.06,226.7,-9999.0,'1111122,1111122,1111122' 
DISL,ioos:station:DISL:MHPA:1,2009-10-03T00:00:00Z,30.6671,-87.9365,8.5,1.66,329.4,-9999.0,'1111122,1111122,1111122' 
DISL,ioos:station:DISL:MHPA:1,2009-10-03T00:30:00Z,30.6671,-87.9365,8.5,0.53,28.98,-9999.0,'1111122,1111122,1111122' 
DISL,ioos:station:DISL:MHPA:1,2009-10-03T01:00:00Z,30.6671,-87.9365,8.5,1.04,358.2,-9999.0,'1111122,1111122,1111122' 
DISL,ioos:station:DISL:MHPA:1,2009-10-03T01:30:00Z,30.6671,-87.9365,8.5,0.91,10.06,-9999.0,'1111122,1111122,1111122' 
DISL,ioos:station:DISL:MHPA:1,2009-10-03T02:00:00Z,30.6671,-87.9365,8.5,0.93,7.77,-9999.0,'1111122,1111122,1111122' 
DISL,ioos:station:DISL:MHPA:1,2009-10-03T02:30:00Z,30.6671,-87.9365,8.5,1.67,8.37,-9999.0,'1111122,1111122,1111122' 
DISL,ioos:station:DISL:MHPA:1,2009-10-03T03:00:00Z,30.6671,-87.9365,8.5,0.4,39.67,-9999.0,'1111122,1111122,1111122' 
DISL,ioos:station:DISL:MHPA:1,2009-10-03T03:30:00Z,30.6671,-87.9365,8.5,1.04,16.39,-9999.0,'1111122,1111122,1111122' 
DISL,ioos:station:DISL:MHPA:1,2009-10-03T04:00:00Z,30.6671,-87.9365,8.5,0.48,37.31,-9999.0,'1111122,1111122,1111122' 
DISL,ioos:station:DISL:MHPA:1,2009-10-03T04:30:00Z,30.6671,-87.9365,8.5,0.57,56.98,-9999.0,'1111122,1111122,1111122' 
DISL,ioos:station:DISL:MHPA:1,2009-10-03T05:00:00Z,30.6671,-87.9365,8.5,0.58,58.99,-9999.0,'1111122,1111122,1111122' 
DISL,ioos:station:DISL:MHPA:1,2009-10-03T05:30:00Z,30.6671,-87.9365,8.5,0.19,32.12,-9999.0,'1111122,1111122,1111122' 
DISL,ioos:station:DISL:MHPA:1,2009-10-03T06:00:00Z,30.6671,-87.9365,8.5,0.33,76.3,-9999.0,'1111122,1111122,1111122' 
DISL,ioos:station:DISL:MHPA:1,2009-10-03T06:30:00Z,30.6671,-87.9365,8.5,0.19,50.33,-9999.0,'1111122,1111122,1111122' 
DISL,ioos:station:DISL:MHPA:1,2009-10-03T07:00:00Z,30.6671,-87.9365,8.5,0.4,67.58,-9999.0,'1111122,1111122,1111122' 
DISL,ioos:station:DISL:MHPA:1,2009-10-03T07:30:00Z,30.6671,-87.9365,8.5,0.22,67.51,-9999.0,'1111122,1111122,1111122' 
DISL,ioos:station:DISL:MHPA:1,2009-10-03T08:00:00Z,30.6671,-87.9365,8.5,1.39,352.6,-9999.0,'1111122,1111122,1111122' 
DISL,ioos:station:DISL:MHPA:1,2009-10-03T08:30:00Z,30.6671,-87.9365,8.5,1.52,23.19,-9999.0,'1111122,1111122,1111122' 
DISL,ioos:station:DISL:MHPA:1,2009-10-03T09:00:00Z,30.6671,-87.9365,8.5,1.67,26.09,-9999.0,'1111122,1111122,1111122' 
DISL,ioos:station:DISL:MHPA:1,2009-10-03T09:30:00Z,30.6671,-87.9365,8.5,0.96,16.19,-9999.0,'1111122,1111122,1111122' 
DISL,ioos:station:DISL:MHPA:1,2009-10-03T10:00:00Z,30.6671,-87.9365,8.5,1.49,30.23,-9999.0,'1111122,1111122,1111122' 
DISL,ioos:station:DISL:MHPA:1,2009-10-03T10:30:00Z,30.6671,-87.9365,8.5,2.49,1.557,-9999.0,'1111122,1111122,1111122' 
DISL,ioos:station:DISL:MHPA:1,2009-10-03T11:00:00Z,30.6671,-87.9365,8.5,2.5,17.33,-9999.0,'1111122,1111122,1111122' 
DISL,ioos:station:DISL:MHPA:1,2009-10-03T11:30:00Z,30.6671,-87.9365,8.5,3.16,6.101,-9999.0,'1111122,1111122,1111122' 
DISL,ioos:station:DISL:MHPA:1,2009-10-03T12:00:00Z,30.6671,-87.9365,8.5,2.99,3.401,-9999.0,'1111122,1111122,1111122' 
DISL,ioos:station:DISL:MHPA:1,2009-10-03T12:30:00Z,30.6671,-87.9365,8.5,2.28,37.11,-9999.0,'1111122,1111122,1111122' 
DISL,ioos:station:DISL:MHPA:1,2009-10-03T13:00:00Z,30.6671,-87.9365,8.5,2.25,31.49,-9999.0,'1111122,1111122,1111122' 
DISL,ioos:station:DISL:MHPA:1,2009-10-03T13:30:00Z,30.6671,-87.9365,8.5,2.63,30.82,-9999.0,'1111122,1111122,1111122' 
DISL,ioos:station:DISL:MHPA:1,2009-10-03T14:00:00Z,30.6671,-87.9365,8.5,2.47,25.23,-9999.0,'1111122,1111122,1111122' 
DISL,ioos:station:DISL:MHPA:1,2009-10-03T14:30:00Z,30.6671,-87.9365,8.5,2.81,26.86,-9999.0,'1111122,1111122,1111122' 
DISL,ioos:station:DISL:MHPA:1,2009-10-03T15:00:00Z,30.6671,-87.9365,8.5,3.04,8.45,-9999.0,'1111122,1111122,1111122' 
DISL,ioos:station:DISL:MHPA:1,2009-10-03T15:30:00Z,30.6671,-87.9365,8.5,2.34,18.86,-9999.0,'1111122,1111122,1111122' 
DISL,ioos:station:DISL:MHPA:1,2009-10-03T16:00:00Z,30.6671,-87.9365,8.5,2.51,0.919,-9999.0,'1111122,1111122,1111122' 
DISL,ioos:station:DISL:MHPA:1,2009-10-03T16:30:00Z,30.6671,-87.9365,8.5,1.94,17.39,-9999.0,'1111122,1111122,1111122' 
DISL,ioos:station:DISL:MHPA:1,2009-10-03T17:00:00Z,30.6671,-87.9365,8.5,2.75,2.06,-9999.0,'1111122,1111122,1111122' 
DISL,ioos:station:DISL:MHPA:1,2009-10-03T17:30:00Z,30.6671,-87.9365,8.5,2.36,352.3,-9999.0,'1111122,1111122,1111122' 
DISL,ioos:station:DISL:MHPA:1,2009-10-03T18:00:00Z,30.6671,-87.9365,8.5,2.29,341.1,-9999.0,'1111122,1111122,1111122' 
DISL,ioos:station:DISL:MHPA:1,2009-10-03T18:30:00Z,30.6671,-87.9365,8.5,2.54,323.0,-9999.0,'1111122,1111122,1111122' 
DISL,ioos:station:DISL:MHPA:1,2009-10-03T19:00:00Z,30.6671,-87.9365,8.5,2.5,313.6,-9999.0,'1111122,1111122,1111122' 
DISL,ioos:station:DISL:MHPA:1,2009-10-03T19:30:00Z,30.6671,-87.9365,8.5,1.71,299.1,-9999.0,'1111122,1111122,1111122' 
DISL,ioos:station:DISL:MHPA:1,2009-10-03T20:00:00Z,30.6671,-87.9365,8.5,3.03,258.0,-9999.0,'1111122,1111122,1111122' 
DISL,ioos:station:DISL:MHPA:1,2009-10-03T20:30:00Z,30.6671,-87.9365,8.5,3.03,276.8,-9999.0,'1111122,1111122,1111122' 
DISL,ioos:station:DISL:MHPA:1,2009-10-03T21:00:00Z,30.6671,-87.9365,8.5,2.61,288.0,-9999.0,'1111122,1111122,1111122' 
DISL,ioos:station:DISL:MHPA:1,2009-10-03T21:30:00Z,30.6671,-87.9365,8.5,2.7,264.7,-9999.0,'1111122,1111122,1111122' 
DISL,ioos:station:DISL:MHPA:1,2009-10-03T22:00:00Z,30.6671,-87.9365,8.5,2.92,265.5,-9999.0,'1111122,1111122,1111122' 
DISL,ioos:station:DISL:MHPA:1,2009-10-03T22:30:00Z,30.6671,-87.9365,8.5,1.76,251.5,-9999.0,'1111122,1111122,1111122' 
DISL,ioos:station:DISL:MHPA:1,2009-10-03T23:00:00Z,30.6671,-87.9365,8.5,1.89,212.9,-9999.0,'1111122,1111122,1111122' 
DISL,ioos:station:DISL:MHPA:1,2009-10-03T23:30:00Z,30.6671,-87.9365,8.5,1.88,186.7,-9999.0,'1111122,1111122,1111122' 
DISL,ioos:station:DISL:MHPA:1,2009-10-04T00:00:00Z,30.6671,-87.9365,8.5,1.13,76.3,-9999.0,'1111122,1111122,1111122' 
DISL,ioos:station:DISL:MHPA:1,2009-10-04T00:30:00Z,30.6671,-87.9365,8.5,1.08,36.6,-9999.0,'1111122,1111122,1111122' 
DISL,ioos:station:DISL:MHPA:1,2009-10-04T01:00:00Z,30.6671,-87.9365,8.5,2.17,43.16,-9999.0,'1111122,1111122,1111122' 
DISL,ioos:station:DISL:MHPA:1,2009-10-04T01:30:00Z,30.6671,-87.9365,8.5,1.42,42.29,-9999.0,'1111122,1111122,1111122' 
DISL,ioos:station:DISL:MHPA:1,2009-10-04T02:00:00Z,30.6671,-87.9365,8.5,2.07,68.28,-9999.0,'1111122,1111122,1111122' 
DISL,ioos:station:DISL:MHPA:1,2009-10-04T02:30:00Z,30.6671,-87.9365,8.5,1.95,73.0,-9999.0,'1111122,1111122,1111122' 
DISL,ioos:station:DISL:MHPA:1,2009-10-04T03:00:00Z,30.6671,-87.9365,8.5,2.16,63.44,-9999.0,'1111122,1111122,1111122' 
DISL,ioos:station:DISL:MHPA:1,2009-10-04T03:30:00Z,30.6671,-87.9365,8.5,2.44,60.66,-9999.0,'1111122,1111122,1111122' 
DISL,ioos:station:DISL:MHPA:1,2009-10-04T04:00:00Z,30.6671,-87.9365,8.5,1.71,79.0,-9999.0,'1111122,1111122,1111122' 
DISL,ioos:station:DISL:MHPA:1,2009-10-04T04:30:00Z,30.6671,-87.9365,8.5,1.68,37.63,-9999.0,'1111122,1111122,1111122' 
DISL,ioos:station:DISL:MHPA:1,2009-10-04T05:00:00Z,30.6671,-87.9365,8.5,1.57,60.72,-9999.0,'1111122,1111122,1111122' 
DISL,ioos:station:DISL:MHPA:1,2009-10-04T05:30:00Z,30.6671,-87.9365,8.5,1.99,72.6,-9999.0,'1111122,1111122,1111122' 
DISL,ioos:station:DISL:MHPA:1,2009-10-04T06:00:00Z,30.6671,-87.9365,8.5,2.01,50.16,-9999.0,'1111122,1111122,1111122' 
DISL,ioos:station:DISL:MHPA:1,2009-10-04T06:30:00Z,30.6671,-87.9365,8.5,2.88,42.38,-9999.0,'1111122,1111122,1111122' 
DISL,ioos:station:DISL:MHPA:1,2009-10-04T07:00:00Z,30.6671,-87.9365,8.5,2.6,43.96,-9999.0,'1111122,1111122,1111122' 
DISL,ioos:station:DISL:MHPA:1,2009-10-04T07:30:00Z,30.6671,-87.9365,8.5,2.68,54.66,-9999.0,'1111122,1111122,1111122' 
DISL,ioos:station:DISL:MHPA:1,2009-10-04T08:00:00Z,30.6671,-87.9365,8.5,3.06,80.7,-9999.0,'1111122,1111122,1111122' 
DISL,ioos:station:DISL:MHPA:1,2009-10-04T08:30:00Z,30.6671,-87.9365,8.5,3.66,92.0,-9999.0,'1111122,1111122,1111122' 
DISL,ioos:station:DISL:MHPA:1,2009-10-04T09:00:00Z,30.6671,-87.9365,8.5,3.55,91.1,-9999.0,'1111122,1111122,1111122' 
DISL,ioos:station:DISL:MHPA:1,2009-10-04T09:30:00Z,30.6671,-87.9365,8.5,3.56,106.1,-9999.0,'1111122,1111122,1111122' 
DISL,ioos:station:DISL:MHPA:1,2009-10-04T10:00:00Z,30.6671,-87.9365,8.5,3.67,91.1,-9999.0,'1111122,1111122,1111122' 
DISL,ioos:station:DISL:MHPA:1,2009-10-04T10:30:00Z,30.6671,-87.9365,8.5,3.33,93.9,-9999.0,'1111122,1111122,1111122' 
DISL,ioos:station:DISL:MHPA:1,2009-10-04T11:00:00Z,30.6671,-87.9365,8.5,3.81,90.3,-9999.0,'1111122,1111122,1111122' 
DISL,ioos:station:DISL:MHPA:1,2009-10-04T11:30:00Z,30.6671,-87.9365,8.5,4.2,92.6,-9999.0,'1111122,1111122,1111122' 
DISL,ioos:station:DISL:MHPA:1,2009-10-04T12:00:00Z,30.6671,-87.9365,8.5,3.55,84.5,-9999.0,'1111122,1111122,1111122' 
DISL,ioos:station:DISL:MHPA:1,2009-10-04T12:30:00Z,30.6671,-87.9365,8.5,3.52,91.2,-9999.0,'1111122,1111122,1111122' 
DISL,ioos:station:DISL:MHPA:1,2009-10-04T13:00:00Z,30.6671,-87.9365,8.5,3.32,88.3,-9999.0,'1111122,1111122,1111122' 
DISL,ioos:station:DISL:MHPA:1,2009-10-04T13:30:00Z,30.6671,-87.9365,8.5,3.88,83.3,-9999.0,'1111122,1111122,1111122' 
DISL,ioos:station:DISL:MHPA:1,2009-10-04T14:00:00Z,30.6671,-87.9365,8.5,3.85,97.4,-9999.0,'1111122,1111122,1111122' 
DISL,ioos:station:DISL:MHPA:1,2009-10-04T14:30:00Z,30.6671,-87.9365,8.5,3.99,85.8,-9999.0,'1111122,1111122,1111122' 
DISL,ioos:station:DISL:MHPA:1,2009-10-04T15:00:00Z,30.6671,-87.9365,8.5,3.86,102.5,-9999.0,'1111122,1111122,1111122' 
DISL,ioos:station:DISL:MHPA:1,2009-10-04T15:30:00Z,30.6671,-87.9365,8.5,4.47,124.6,-9999.0,'1111122,1111122,1111122' 
DISL,ioos:station:DISL:MHPA:1,2009-10-04T16:00:00Z,30.6671,-87.9365,8.5,4.25,118.5,-9999.0,'1111122,1111122,1111122' 
DISL,ioos:station:DISL:MHPA:1,2009-10-04T16:30:00Z,30.6671,-87.9365,8.5,4.08,114.3,-9999.0,'1111122,1111122,1111122' 
DISL,ioos:station:DISL:MHPA:1,2009-10-04T17:00:00Z,30.6671,-87.9365,8.5,4.41,110.7,-9999.0,'1111122,1111122,1111122' 
DISL,ioos:station:DISL:MHPA:1,2009-10-04T17:30:00Z,30.6671,-87.9365,8.5,3.63,104.8,-9999.0,'1111122,1111122,1111122' 
DISL,ioos:station:DISL:MHPA:1,2009-10-04T18:00:00Z,30.6671,-87.9365,8.5,3.44,106.2,-9999.0,'1111122,1111122,1111122' 
DISL,ioos:station:DISL:MHPA:1,2009-10-04T18:30:00Z,30.6671,-87.9365,8.5,4.24,109.5,-9999.0,'1111122,1111122,1111122' 
DISL,ioos:station:DISL:MHPA:1,2009-10-04T19:00:00Z,30.6671,-87.9365,8.5,3.88,108.7,-9999.0,'1111122,1111122,1111122' 
DISL,ioos:station:DISL:MHPA:1,2009-10-04T19:30:00Z,30.6671,-87.9365,8.5,3.96,114.0,-9999.0,'1111122,1111122,1111122' 
DISL,ioos:station:DISL:MHPA:1,2009-10-04T20:00:00Z,30.6671,-87.9365,8.5,1.84,99.8,-9999.0,'1111122,1111122,1111122' 
DISL,ioos:station:DISL:MHPA:1,2009-10-04T20:30:00Z,30.6671,-87.9365,8.5,2.53,69.84,-9999.0,'1111122,1111122,1111122' 
DISL,ioos:station:DISL:MHPA:1,2009-10-04T21:00:00Z,30.6671,-87.9365,8.5,3.89,134.0,-9999.0,'1111122,1111122,1111122' 
DISL,ioos:station:DISL:MHPA:1,2009-10-04T21:30:00Z,30.6671,-87.9365,8.5,3.82,145.5,-9999.0,'1111122,1111122,1111122' 
DISL,ioos:station:DISL:MHPA:1,2009-10-04T22:00:00Z,30.6671,-87.9365,8.5,3.56,139.2,-9999.0,'1111122,1111122,1111122' 
DISL,ioos:station:DISL:MHPA:1,2009-10-04T22:30:00Z,30.6671,-87.9365,8.5,2.73,122.0,-9999.0,'1111122,1111122,1111122' 
DISL,ioos:station:DISL:MHPA:1,2009-10-04T23:00:00Z,30.6671,-87.9365,8.5,2.34,116.5,-9999.0,'1111122,1111122,1111122' 
DISL,ioos:station:DISL:MHPA:1,2009-10-04T23:30:00Z,30.6671,-87.9365,8.5,3.89,137.6,-9999.0,'1111122,1111122,1111122' 
DISL,ioos:station:DISL:MHPA:1,2009-10-05T00:00:00Z,30.6671,-87.9365,8.5,4.08,117.6,-9999.0,'1111122,1111122,1111122' 
DISL,ioos:station:DISL:MHPA:1,2009-10-05T00:30:00Z,30.6671,-87.9365,8.5,4.41,125.5,-9999.0,'1111122,1111122,1111122' 
DISL,ioos:station:DISL:MHPA:1,2009-10-05T01:00:00Z,30.6671,-87.9365,8.5,4.55,139.0,-9999.0,'1111122,1111122,1111122' 
DISL,ioos:station:DISL:MHPA:1,2009-10-05T01:30:00Z,30.6671,-87.9365,8.5,4.11,139.6,-9999.0,'1111122,1111122,1111122' 
DISL,ioos:station:DISL:MHPA:1,2009-10-05T02:00:00Z,30.6671,-87.9365,8.5,4.27,130.1,-9999.0,'1111122,1111122,1111122' 
DISL,ioos:station:DISL:MHPA:1,2009-10-05T02:30:00Z,30.6671,-87.9365,8.5,3.37,134.1,-9999.0,'1111122,1111122,1111122' 
DISL,ioos:station:DISL:MHPA:1,2009-10-05T03:00:00Z,30.6671,-87.9365,8.5,2.5,134.1,-9999.0,'1111122,1111122,1111122' 
DISL,ioos:station:DISL:MHPA:1,2009-10-05T03:30:00Z,30.6671,-87.9365,8.5,1.76,265.4,-9999.0,'1111122,1111122,1111122' 
DISL,ioos:station:DISL:MHPA:1,2009-10-05T04:00:00Z,30.6671,-87.9365,8.5,0.3,317.3,-9999.0,'1111122,1111122,1111122' 
DISL,ioos:station:DISL:MHPA:1,2009-10-05T04:30:00Z,30.6671,-87.9365,8.5,0.84,48.78,-9999.0,'1111122,1111122,1111122' 